User: anonymous   Login
Location: Unspecified
(0.0000°N, 0.0000°E)
Time: 18:05:05
(UTC+00:00)
Language:

STARLINK-34719 - Orbit

View from above orbital plane
View from above orbital plane
View from above satellite
View from above satellite

Ground track
Ground track

The orbit is defined by the following mean orbital elements,

1 64943U          26145.35566904 +.00000000 +00000-0 +20638-3 0 00007
2 64943  97.4517   9.3002 0002255  87.3620 272.7866 15.05655458    07
Epoch (UTC): 25 May 2026 08:32:09
Eccentricity: 0.0002255
inclination: 97.4517°
perigee height: 548 km
apogee height: 551 km
right ascension of ascending node: 9.3002°
argument of perigee: 87.3620°
revolutions per day: 15.05655458
mean anomaly at epoch: 272.7866°

The dashed part of the orbit path shows where the satellite is in the earth's shadow,  

DLR